Location: Siloam Springs
(36.1881°N, 94.5403°W)
Time: 06:29:25
(UTC-05:00)

CUBESAT XI-V - Pass Details

Date: 29 May 2024
Orbit: 657 x 679 km, 98.2° (Epoch: 16 June)

Event Time Altitude Azimuth Distance (km) Brightness Sun altitude
Exits shadow 02:04:21 - 87° (E) 2,138 ? -31.0°
Reaches altitude 10° 02:04:50 10° 81° (E) 2,072 ? -30.9°
Maximum altitude 02:06:11 11° 64° (ENE) 1,988 ? -30.9°
Drops below altitude 10° 02:07:33 10° 46° (NE) 2,074 ? -30.8°
Sets 02:11:22 0° 13° (NNE) 2,991 ? -30.6°
